Starlink 35407

operational
NORAD ID: 66334 Int'l Des: 2025-253 Owner: SPXS Country: US Constellation: starlink
NOTLE

About Starlink 35407

Description loading...

Live Position

Loading 3D Globe...

Upcoming Passes

Altitude History

Altitude vs Time

uPlot chart will show altitude changes over time

Two-Line Element Set

1 66334U 25253R 25355.23953036 .00051802 00000-0 12371-2 0 9992
2 66334 43.0006 296.6745 0001206 263.6391 96.4328 15.40744200 8237
Epoch: Dec 21, 2025 • Age: 15 hours

Current Status

Altitude 442.9 km
Velocity 7.65 km/s
Sub-Earth Point 8.21°N, 66.48°E
Launch Date Nov 6, 2025
Age 0.1 years
Type internet

Technical Details

Classification Payload
Mass 575.00 kg
Dry Mass 530.00 kg
Total Mass 575.00 kg
Length 0.30 m
Diameter 4.10 m
Span 29.00 m
Shape Box + pan
Manufacturer SPXS
Bus Type Starlink V2MO
Phase Status In Orbit
Owner/State SPXS/US

Large Constellations

Loading constellations...